Change the Weather History Date:

Sunday, May 26, 2013

  Actual Average Record
Temperature  
Mean Temperature 54 °F -  
Max Temperature 69 °F 68 °F 91 °F (1911)
Min Temperature 39 °F 43 °F 25 °F (1925)
Degree Days  
Heating Degree Days 11    
Growing Degree Days 4 (Base 50)    
Moisture  
Dew Point 32 °F    
Average Humidity 44    
Maximum Humidity 86    
Minimum Humidity 20    
Precipitation  
Precipitation 0.00 in - - ()
Sea Level Pressure  
Sea Level Pressure 30.27 in    
Wind  
Wind Speed 5 mph (SE)    
Max Wind Speed 15 mph    
Max Gust Speed 18 mph    
Visibility 10 miles    
Events      
Averages and records for this station are not official NWS values.
T = Trace of Precipitation, MM = Missing Value Source: NWS Daily Summary

Daily Weather History Graph

Daily Weather History Graph

Search for Another Location

Airport or City:

Trip Planner

Search our weather history database for the weather conditions in past years. The results will help you decide how hot, cold, wet, or windy it might be!

Date:

Astronomy

May. 26, 2013 Rise Set
Actual Time 5:15 AM CDT 8:36 PM CDT
Civil Twilight 4:39 AM CDT 9:13 PM CDT
Nautical Twilight 3:51 AM CDT 10:01 PM CDT
Astronomical Twilight 2:51 AM CDT 11:02 PM CDT
Moon 10:22 PM CDT (5/26) 6:46 AM CDT (5/26)
Length of Visible Light 16h 34m
Length of Day
15h 20m
Waning Gibbous, 96% of the Moon is Illuminated
May 26
Waning Gibbous
May 31
Last Quarter
Jun 8
New
Jun 16
First Quarter
Jun 23
Full

Hourly Weather History & Observations

Time (CDT) Temp. Dew Point Humidity Pressure Visibility Wind Dir Wind Speed Gust Speed Precip Events Conditions
12:15 AM 51.8 °F 38.8 °F 61% 30.31 in 10.0 mi SSE 5.8 mph - N/A   Clear
12:35 AM 51.8 °F 38.3 °F 60% 30.32 in 10.0 mi SSE 4.6 mph - N/A   Clear
12:55 AM 51.8 °F 38.3 °F 60% 30.32 in 10.0 mi ESE 3.5 mph - N/A   Clear
1:15 AM 49.3 °F 38.3 °F 66% 30.32 in 10.0 mi SE 3.5 mph - N/A   Clear
1:35 AM 49.3 °F 38.7 °F 67% 30.32 in 10.0 mi SE 3.5 mph - N/A   Clear
1:55 AM 49.3 °F 37.8 °F 65% 30.31 in 10.0 mi SSE 3.5 mph - N/A   Clear
2:15 AM 48.4 °F 36.0 °F 62% 30.30 in 10.0 mi SSE 3.5 mph - N/A   Clear
2:35 AM 46.8 °F 34.0 °F 61% 30.30 in 10.0 mi Calm Calm - N/A   Clear
2:55 AM 44.1 °F 34.9 °F 70% 30.31 in 10.0 mi Calm Calm - N/A   Clear
3:15 AM 43.0 °F 36.1 °F 77% 30.31 in 10.0 mi Calm Calm - N/A   Clear
3:35 AM 42.8 °F 35.8 °F 76% 30.31 in 10.0 mi Calm Calm - N/A   Clear
3:55 AM 41.5 °F 35.6 °F 79% 30.30 in 10.0 mi Calm Calm - N/A   Clear
4:15 AM 41.5 °F 36.5 °F 82% 30.31 in 10.0 mi Calm Calm - N/A   Clear
4:35 AM 41.5 °F 36.9 °F 83% 30.30 in 10.0 mi Calm Calm - N/A   Clear
4:55 AM 41.5 °F 36.1 °F 81% 30.31 in 10.0 mi Calm Calm - N/A   Clear
5:15 AM 39.2 °F 34.7 °F 84% 30.32 in 10.0 mi Calm Calm - N/A   Clear
5:35 AM 41.5 °F 36.3 °F 82% 30.32 in 10.0 mi Calm Calm - N/A   Clear
5:55 AM 39.0 °F 34.9 °F 85% 30.32 in 10.0 mi Calm Calm - N/A   Clear
6:15 AM 41.5 °F 37.8 °F 86% 30.33 in 10.0 mi Calm Calm - N/A   Clear
6:35 AM 45.1 °F 38.5 °F 77% 30.34 in 10.0 mi Calm Calm - N/A   Clear
6:55 AM 49.3 °F 38.8 °F 67% 30.34 in 10.0 mi ESE 3.5 mph - N/A   Clear
7:15 AM 51.8 °F 38.3 °F 60% 30.33 in 10.0 mi SE 4.6 mph - N/A   Clear
7:35 AM 51.8 °F 36.0 °F 55% 30.33 in 10.0 mi SE 4.6 mph - N/A   Clear
7:55 AM 54.5 °F 35.4 °F 49% 30.33 in 10.0 mi SSE 9.2 mph - N/A   Clear
8:15 AM 56.8 °F 35.4 °F 45% 30.32 in 10.0 mi SSE 10.4 mph - N/A   Clear
8:35 AM 56.8 °F 33.1 °F 41% 30.31 in 10.0 mi SE 10.4 mph - N/A   Clear
8:55 AM 56.8 °F 32.5 °F 40% 30.32 in 10.0 mi SE 6.9 mph - N/A   Clear
9:15 AM 57.0 °F 32.0 °F 39% 30.33 in 10.0 mi SSE 9.2 mph - N/A   Clear
9:35 AM 59.0 °F 32.7 °F 37% 30.32 in 10.0 mi South 9.2 mph - N/A   Clear
9:55 AM 59.4 °F 32.0 °F 36% 30.32 in 10.0 mi SE 10.4 mph - N/A   Clear
10:15 AM 59.4 °F 31.3 °F 35% 30.32 in 10.0 mi SE 8.1 mph - N/A   Clear
10:35 AM 60.6 °F 31.1 °F 33% 30.32 in 10.0 mi SE 9.2 mph - N/A   Clear
10:55 AM 60.8 °F 30.4 °F 32% 30.31 in 10.0 mi ESE 5.8 mph 16.1 mph N/A   Clear
11:15 AM 61.9 °F 31.6 °F 32% 30.30 in 10.0 mi SE 8.1 mph - N/A   Clear
11:35 AM 61.9 °F 31.5 °F 32% 30.30 in 10.0 mi SE 6.9 mph - N/A   Clear
11:55 AM 61.9 °F 28.9 °F 29% 30.30 in 10.0 mi ESE 15.0 mph 18.4 mph N/A   Clear
12:15 PM 63.1 °F 28.2 °F 27% 30.30 in 10.0 mi SE 10.4 mph 16.1 mph N/A   Clear
12:35 PM 62.4 °F 27.1 °F 26% 30.29 in 10.0 mi SE 8.1 mph - N/A   Clear
12:55 PM 63.9 °F 27.1 °F 25% 30.28 in 10.0 mi SSE 12.7 mph - N/A   Clear
1:15 PM 64.6 °F 28.2 °F 25% 30.27 in 10.0 mi SE 10.4 mph - N/A   Clear
1:35 PM 64.4 °F 27.7 °F 25% 30.26 in 10.0 mi SSE 10.4 mph - N/A   Clear
1:55 PM 64.8 °F 26.4 °F 23% 30.25 in 10.0 mi East 6.9 mph 17.3 mph N/A   Clear
2:15 PM 65.1 °F 26.8 °F 24% 30.25 in 10.0 mi South 8.1 mph - N/A   Clear
2:35 PM 65.8 °F 25.0 °F 21% 30.25 in 10.0 mi SE 5.8 mph 17.3 mph N/A   Clear
2:55 PM 67.1 °F 27.9 °F 23% 30.24 in 10.0 mi SE 9.2 mph 17.3 mph N/A   Clear
3:15 PM 66.6 °F 27.0 °F 23% 30.23 in 10.0 mi South 9.2 mph 16.1 mph N/A   Clear
3:35 PM 67.1 °F 26.4 °F 22% 30.23 in 10.0 mi SSE 9.2 mph 16.1 mph N/A   Clear
3:55 PM 67.1 °F 26.8 °F 22% 30.22 in 10.0 mi SSE 11.5 mph 16.1 mph N/A   Clear
4:15 PM 65.8 °F 23.2 °F 20% 30.22 in 10.0 mi South 9.2 mph - N/A   Clear
4:35 PM 69.4 °F 26.8 °F 20% 30.22 in 10.0 mi South 11.5 mph 16.1 mph N/A   Clear
4:55 PM 66.6 °F 23.7 °F 20% 30.21 in 10.0 mi SSE 10.4 mph 16.1 mph N/A   Clear
5:15 PM 65.1 °F 23.9 °F 21% 30.20 in 10.0 mi SSE 8.1 mph - N/A   Clear
5:35 PM 65.3 °F 25.5 °F 22% 30.20 in 10.0 mi SSE 10.4 mph - N/A   Clear
5:55 PM 65.3 °F 25.2 °F 22% 30.20 in 10.0 mi SSE 10.4 mph - N/A   Clear
6:15 PM 65.7 °F 24.8 °F 21% 30.19 in 10.0 mi ESE 9.2 mph - N/A   Clear
6:35 PM 64.4 °F 25.5 °F 23% 30.19 in 10.0 mi SSE 8.1 mph - N/A   Clear
6:55 PM 64.4 °F 24.4 °F 22% 30.19 in 10.0 mi SSE 9.2 mph - N/A   Clear
7:15 PM 64.4 °F 26.1 °F 23% 30.19 in 10.0 mi SSE 8.1 mph - N/A   Clear
7:35 PM 63.9 °F 25.3 °F 23% - 10.0 mi SE 9.2 mph - N/A   Clear
7:55 PM 62.2 °F 27.5 °F 27% 30.19 in 10.0 mi SSE 8.1 mph - N/A   Clear
8:15 PM 61.9 °F 28.0 °F 28% 30.19 in 10.0 mi SSE 10.4 mph - N/A   Clear
8:35 PM 59.4 °F 27.5 °F 30% 30.20 in 10.0 mi SSE 4.6 mph - N/A   Clear
8:55 PM 59.4 °F 29.5 °F 32% 30.21 in 10.0 mi SE 3.5 mph - N/A   Clear
9:15 PM 56.8 °F 28.4 °F 34% 30.22 in 10.0 mi SE 3.5 mph - N/A   Clear
9:35 PM 56.8 °F 32.5 °F 40% 30.22 in 10.0 mi ESE 3.5 mph - N/A   Clear
9:55 PM 56.8 °F 32.5 °F 40% 30.21 in 10.0 mi ESE 4.6 mph - N/A   Clear
10:15 PM 54.5 °F 32.0 °F 42% 30.20 in 10.0 mi ESE 4.6 mph - N/A   Clear
10:35 PM 51.8 °F 32.0 °F 47% 30.20 in 10.0 mi SE 5.8 mph - N/A   Clear
10:55 PM 52.2 °F 32.9 °F 48% 30.20 in 10.0 mi ESE 3.5 mph - N/A   Clear
11:15 PM 51.8 °F 34.2 °F 51% 30.21 in 10.0 mi ESE 3.5 mph - N/A   Clear
11:35 PM 51.8 °F 36.1 °F 55% 30.21 in 10.0 mi SE 3.5 mph - N/A   Clear
11:55 PM 51.8 °F 37.8 °F 59% 30.21 in 10.0 mi SE 5.8 mph - N/A   Clear